Time,TemperatureF,DewpointF,PressureIn,WindDirection,WindDirectionDegrees,WindSpeedMPH,WindSpeedGustMPH,Humidity,HourlyPrecipIn,Conditions,Clouds,dailyrainin,SolarRadiationWatts/m^2,SoftwareType,DateUTC
2013-03-11 00:12:00,32.0,32.0,-100.00,NNW,333,14.0,21.0,100,0.00,,,0.37,0.000000,,2013-03-11 05:12:00,
2013-03-11 00:22:00,32.0,32.0,-100.00,NNW,333,14.0,21.0,100,0.00,,,0.37,0.000000,,2013-03-11 05:22:00,
2013-03-11 00:32:00,32.0,32.0,-100.00,NNW,333,14.0,21.0,100,0.00,,,0.37,0.000000,,2013-03-11 05:32:00,
2013-03-11 00:42:00,32.0,32.0,-100.00,NNW,333,14.0,21.0,100,0.00,,,0.37,0.000000,,2013-03-11 05:42:00,
2013-03-11 01:12:00,32.0,32.0,-100.00,NW,323,17.0,21.0,100,0.00,,,0.37,0.000000,,2013-03-11 06:12:00,
2013-03-11 01:22:00,32.0,32.0,-100.00,NW,323,17.0,21.0,100,0.00,,,0.37,0.000000,,2013-03-11 06:22:00,
2013-03-11 01:32:00,32.0,32.0,-100.00,NW,323,17.0,21.0,100,0.00,,,0.37,0.000000,,2013-03-11 06:32:00,
2013-03-11 01:42:00,32.0,32.0,-100.00,NW,323,17.0,21.0,100,0.00,,,0.37,0.000000,,2013-03-11 06:42:00,
2013-03-11 02:12:00,31.0,31.0,-100.00,NW,321,17.0,23.0,100,0.00,,,0.37,0.000000,,2013-03-11 07:12:00,
2013-03-11 02:22:00,31.0,31.0,-100.00,NW,321,17.0,23.0,100,0.00,,,0.37,0.000000,,2013-03-11 07:22:00,
2013-03-11 02:32:00,31.0,31.0,-100.00,NW,321,17.0,23.0,100,0.00,,,0.37,0.000000,,2013-03-11 07:32:00,
2013-03-11 02:42:00,31.0,31.0,-100.00,NW,321,17.0,23.0,100,0.00,,,0.37,0.000000,,2013-03-11 07:42:00,
2013-03-11 03:12:00,30.0,30.0,-100.00,NW,314,18.0,24.0,100,0.00,,,0.36,0.000000,,2013-03-11 08:12:00,
2013-03-11 03:22:00,30.0,30.0,-100.00,NW,314,18.0,24.0,100,0.00,,,0.36,0.000000,,2013-03-11 08:22:00,
2013-03-11 03:32:00,30.0,30.0,-100.00,NW,314,18.0,24.0,100,0.00,,,0.36,0.000000,,2013-03-11 08:32:00,
2013-03-11 03:42:00,30.0,30.0,-100.00,NW,314,18.0,24.0,100,0.00,,,0.36,0.000000,,2013-03-11 08:42:00,
2013-03-11 04:12:00,30.0,30.0,-100.00,NW,316,17.0,23.0,100,0.00,,,0.35,0.000000,,2013-03-11 09:12:00,
2013-03-11 04:23:00,30.0,30.0,-100.00,NW,316,17.0,23.0,100,0.00,,,0.35,0.000000,,2013-03-11 09:23:00,
2013-03-11 04:32:00,30.0,30.0,-100.00,NW,316,17.0,23.0,100,0.00,,,0.35,0.000000,,2013-03-11 09:32:00,
2013-03-11 04:42:00,30.0,30.0,-100.00,NW,316,17.0,23.0,100,0.00,,,0.35,0.000000,,2013-03-11 09:42:00,
2013-03-11 05:12:00,29.0,29.0,-100.00,NW,320,18.0,24.0,100,0.00,,,0.31,0.000000,,2013-03-11 10:12:00,
2013-03-11 05:22:00,29.0,29.0,-100.00,NW,320,18.0,24.0,100,0.00,,,0.31,0.000000,,2013-03-11 10:22:00,
2013-03-11 05:32:00,29.0,29.0,-100.00,NW,320,18.0,24.0,100,0.00,,,0.31,0.000000,,2013-03-11 10:32:00,
2013-03-11 05:42:00,29.0,29.0,-100.00,NW,320,18.0,24.0,100,0.00,,,0.31,0.000000,,2013-03-11 10:42:00,
2013-03-11 06:12:00,28.0,28.0,-100.00,NW,319,18.0,25.0,100,0.00,,,0.30,0.000000,,2013-03-11 11:12:00,
2013-03-11 06:22:00,28.0,28.0,-100.00,NW,319,18.0,25.0,100,0.00,,,0.30,0.000000,,2013-03-11 11:22:00,
2013-03-11 06:32:00,28.0,28.0,-100.00,NW,319,18.0,25.0,100,0.00,,,0.30,0.000000,,2013-03-11 11:32:00,
2013-03-11 06:42:00,28.0,28.0,-100.00,NW,319,18.0,25.0,100,0.00,,,0.30,0.000000,,2013-03-11 11:42:00,
2013-03-11 07:12:00,28.0,28.0,-100.00,NW,312,17.0,25.0,100,0.00,,,-99.99,0.000000,,2013-03-11 12:12:00,
2013-03-11 07:22:00,28.0,28.0,-100.00,NW,312,17.0,25.0,100,0.00,,,-99.99,0.000000,,2013-03-11 12:22:00,
2013-03-11 07:32:00,28.0,28.0,-100.00,NW,312,17.0,25.0,100,0.00,,,-99.99,0.000000,,2013-03-11 12:32:00,
2013-03-11 07:42:00,28.0,28.0,-100.00,NW,312,17.0,25.0,100,0.00,,,-99.99,0.000000,,2013-03-11 12:42:00,
2013-03-11 08:12:00,27.0,27.0,-100.00,NW,315,16.0,22.0,100,0.00,,,-99.99,2.000000,,2013-03-11 13:12:00,
2013-03-11 08:22:00,27.0,27.0,-100.00,NW,315,16.0,22.0,100,0.00,,,-99.99,2.000000,,2013-03-11 13:22:00,
2013-03-11 08:32:00,27.0,27.0,-100.00,NW,315,16.0,22.0,100,0.00,,,-99.99,2.000000,,2013-03-11 13:32:00,
2013-03-11 08:42:00,27.0,27.0,-100.00,NW,315,16.0,22.0,100,0.00,,,-99.99,2.000000,,2013-03-11 13:42:00,
2013-03-11 09:12:00,26.0,26.0,-100.00,NW,308,18.0,22.0,100,0.00,,,0.29,37.000000,,2013-03-11 14:12:00,
2013-03-11 09:22:00,26.0,26.0,-100.00,NW,308,18.0,22.0,100,0.00,,,0.29,37.000000,,2013-03-11 14:22:00,
2013-03-11 09:33:00,26.0,26.0,-100.00,NW,308,18.0,22.0,100,0.00,,,0.29,37.000000,,2013-03-11 14:33:00,
2013-03-11 09:42:00,26.0,26.0,-100.00,NW,308,18.0,22.0,100,0.00,,,0.29,37.000000,,2013-03-11 14:42:00,
2013-03-11 10:12:00,27.0,27.0,-100.00,NW,305,19.0,26.0,100,0.00,,,0.29,162.000000,,2013-03-11 15:12:00,
2013-03-11 10:22:00,27.0,27.0,-100.00,NW,305,19.0,26.0,100,0.00,,,0.29,162.000000,,2013-03-11 15:22:00,
2013-03-11 10:32:00,27.0,27.0,-100.00,NW,305,19.0,26.0,100,0.00,,,0.29,162.000000,,2013-03-11 15:32:00,
2013-03-11 10:42:00,27.0,27.0,-100.00,NW,305,19.0,26.0,100,0.00,,,0.29,162.000000,,2013-03-11 15:42:00,
2013-03-11 11:12:00,28.0,28.0,-100.00,NW,309,21.0,28.0,98,0.00,,,0.27,305.000000,,2013-03-11 16:12:00,
2013-03-11 11:22:00,28.0,28.0,-100.00,NW,309,21.0,28.0,98,0.00,,,0.27,305.000000,,2013-03-11 16:22:00,
2013-03-11 11:32:00,28.0,28.0,-100.00,NW,309,21.0,28.0,98,0.00,,,0.27,305.000000,,2013-03-11 16:32:00,
2013-03-11 11:43:00,28.0,28.0,-100.00,NW,309,21.0,28.0,98,0.00,,,0.27,305.000000,,2013-03-11 16:43:00,
2013-03-11 12:02:00,29.0,28.0,-100.00,NW,317,20.0,30.0,95,0.00,,,-99.99,345.000000,,2013-03-11 17:02:00,
2013-03-11 12:15:00,29.0,28.0,-100.00,NW,317,20.0,30.0,95,0.00,,,-99.99,345.000000,,2013-03-11 17:15:00,
2013-03-11 12:26:00,29.0,28.0,-100.00,NW,317,20.0,30.0,95,0.00,,,-99.99,345.000000,,2013-03-11 17:26:00,
2013-03-11 12:35:00,29.0,28.0,-100.00,NW,317,20.0,30.0,95,0.00,,,-99.99,345.000000,,2013-03-11 17:35:00,
2013-03-11 12:42:00,29.0,28.0,-100.00,NW,317,20.0,30.0,95,0.00,,,-99.99,345.000000,,2013-03-11 17:42:00,
2013-03-11 13:12:00,28.0,27.0,-100.00,WNW,292,19.0,30.0,95,0.00,,,0.24,332.000000,,2013-03-11 18:12:00,
2013-03-11 13:23:00,28.0,27.0,-100.00,WNW,292,19.0,30.0,95,0.00,,,0.24,332.000000,,2013-03-11 18:23:00,
2013-03-11 13:32:00,28.0,27.0,-100.00,WNW,292,19.0,30.0,95,0.00,,,0.24,332.000000,,2013-03-11 18:32:00,
2013-03-11 13:42:00,28.0,27.0,-100.00,WNW,292,19.0,30.0,95,0.00,,,0.24,332.000000,,2013-03-11 18:42:00,
2013-03-11 14:12:00,29.0,27.0,-100.00,WNW,291,21.0,27.0,92,0.00,,,0.22,499.000000,,2013-03-11 19:12:00,
2013-03-11 14:22:00,29.0,27.0,-100.00,WNW,291,21.0,27.0,92,0.00,,,0.22,499.000000,,2013-03-11 19:22:00,
2013-03-11 14:32:00,29.0,27.0,-100.00,WNW,291,21.0,27.0,92,0.00,,,0.22,499.000000,,2013-03-11 19:32:00,
2013-03-11 14:42:00,29.0,27.0,-100.00,WNW,291,21.0,27.0,92,0.00,,,0.22,499.000000,,2013-03-11 19:42:00,
2013-03-11 15:12:00,29.0,27.0,-100.00,WNW,284,20.0,28.0,93,0.00,,,0.22,365.000000,,2013-03-11 20:12:00,
2013-03-11 15:22:00,29.0,27.0,-100.00,WNW,284,20.0,28.0,93,0.00,,,0.22,365.000000,,2013-03-11 20:22:00,
2013-03-11 15:32:00,29.0,27.0,-100.00,WNW,284,20.0,28.0,93,0.00,,,0.22,365.000000,,2013-03-11 20:32:00,
2013-03-11 15:43:00,29.0,27.0,-100.00,WNW,284,20.0,28.0,93,0.00,,,0.22,365.000000,,2013-03-11 20:43:00,
2013-03-11 16:12:00,28.0,26.0,-100.00,WNW,288,20.0,25.0,91,0.00,,,0.12,207.000000,,2013-03-11 21:12:00,
2013-03-11 16:22:00,28.0,26.0,-100.00,WNW,288,20.0,25.0,91,0.00,,,0.12,207.000000,,2013-03-11 21:22:00,
2013-03-11 16:32:00,28.0,26.0,-100.00,WNW,288,20.0,25.0,91,0.00,,,0.12,207.000000,,2013-03-11 21:32:00,
2013-03-11 16:43:00,28.0,26.0,-100.00,WNW,288,20.0,25.0,91,0.00,,,0.12,207.000000,,2013-03-11 21:43:00,
2013-03-11 17:12:00,28.0,24.0,-100.00,WNW,297,18.0,25.0,85,0.00,,,0.04,212.000000,,2013-03-11 22:12:00,
2013-03-11 17:22:00,28.0,24.0,-100.00,WNW,297,18.0,25.0,85,0.00,,,0.04,212.000000,,2013-03-11 22:22:00,
2013-03-11 17:32:00,28.0,24.0,-100.00,WNW,297,18.0,25.0,85,0.00,,,0.04,212.000000,,2013-03-11 22:32:00,
2013-03-11 17:43:00,28.0,24.0,-100.00,WNW,297,18.0,25.0,85,0.00,,,0.04,212.000000,,2013-03-11 22:43:00,
2013-03-11 18:12:00,27.0,24.0,-100.00,WNW,295,17.0,24.0,88,0.00,,,0.01,107.000000,,2013-03-11 23:12:00,
2013-03-11 18:22:00,27.0,24.0,-100.00,WNW,295,17.0,24.0,88,0.00,,,0.01,107.000000,,2013-03-11 23:22:00,
2013-03-11 18:32:00,27.0,24.0,-100.00,WNW,295,17.0,24.0,88,0.00,,,0.01,107.000000,,2013-03-11 23:32:00,
2013-03-11 18:43:00,27.0,24.0,-100.00,WNW,295,17.0,24.0,88,0.00,,,0.01,107.000000,,2013-03-11 23:43:00,
2013-03-11 19:12:00,27.0,23.0,-100.00,WNW,285,16.0,22.0,86,0.00,,,0.01,37.000000,,2013-03-12 00:12:00,
2013-03-11 19:23:00,27.0,23.0,-100.00,WNW,285,16.0,22.0,86,0.00,,,0.01,37.000000,,2013-03-12 00:23:00,
2013-03-11 19:33:00,27.0,23.0,-100.00,WNW,285,16.0,22.0,86,0.00,,,0.01,37.000000,,2013-03-12 00:33:00,
2013-03-11 19:42:00,27.0,23.0,-100.00,WNW,285,16.0,22.0,86,0.00,,,0.01,37.000000,,2013-03-12 00:42:00,
2013-03-11 20:12:00,26.0,22.0,-100.00,WNW,287,14.0,22.0,83,0.00,,,0.01,5.000000,,2013-03-12 01:12:00,
2013-03-11 20:22:00,26.0,22.0,-100.00,WNW,287,14.0,22.0,83,0.00,,,0.01,5.000000,,2013-03-12 01:22:00,
2013-03-11 20:33:00,26.0,22.0,-100.00,WNW,287,14.0,22.0,83,0.00,,,0.01,5.000000,,2013-03-12 01:33:00,
2013-03-11 20:42:00,26.0,22.0,-100.00,WNW,287,14.0,22.0,83,0.00,,,0.01,5.000000,,2013-03-12 01:42:00,
2013-03-11 21:12:00,25.0,21.0,-100.00,West,269,14.0,20.0,86,0.00,,,0.01,0.000000,,2013-03-12 02:12:00,
2013-03-11 21:22:00,25.0,21.0,-100.00,West,269,14.0,20.0,86,0.00,,,0.01,0.000000,,2013-03-12 02:22:00,
2013-03-11 21:32:00,25.0,21.0,-100.00,West,269,14.0,20.0,86,0.00,,,0.01,0.000000,,2013-03-12 02:32:00,
2013-03-11 21:42:00,25.0,21.0,-100.00,West,269,14.0,20.0,86,0.00,,,0.01,0.000000,,2013-03-12 02:42:00,
2013-03-11 22:12:00,25.0,22.0,-100.00,West,264,11.0,19.0,89,0.00,,,0.00,0.000000,,2013-03-12 03:12:00,
2013-03-11 22:22:00,25.0,22.0,-100.00,West,264,11.0,19.0,89,0.00,,,0.00,0.000000,,2013-03-12 03:22:00,
2013-03-11 22:32:00,25.0,22.0,-100.00,West,264,11.0,19.0,89,0.00,,,0.00,0.000000,,2013-03-12 03:32:00,
2013-03-11 22:42:00,25.0,22.0,-100.00,West,264,11.0,19.0,89,0.00,,,0.00,0.000000,,2013-03-12 03:42:00,
2013-03-11 23:13:00,26.0,22.0,-100.00,West,277,13.0,16.0,86,0.00,,,0.00,0.000000,,2013-03-12 04:13:00,
2013-03-11 23:22:00,26.0,22.0,-100.00,West,277,13.0,16.0,86,0.00,,,0.00,0.000000,,2013-03-12 04:22:00,
2013-03-11 23:32:00,26.0,22.0,-100.00,West,277,13.0,16.0,86,0.00,,,0.00,0.000000,,2013-03-12 04:32:00,
2013-03-11 23:43:00,26.0,22.0,-100.00,West,277,13.0,16.0,86,0.00,,,0.00,0.000000,,2013-03-12 04:43:00,